Overview Statistics Trail Chart Weather Telemetry Raw packets
 

This is the latest recevied weather packets stored in our database for station/object KD0MAC. If no packets are shown the sender has not sent any weather packets the latest 10 day(s).

<< 4 5 6 7 8 9 10 >>
Time Temp. Humidity Pressure Rain* Wind** Luminosity Snow
1788639876 37.78° C 33% 1013.2 hPa 0 mm - 504 W/m² -
1788639834 37.78° C 33% 1013.2 hPa 0 mm - 504 W/m² -
1788639534 37.78° C 32% 1013.2 hPa 0 mm - 507 W/m² -
1788639235 37.22° C 31% 1013.2 hPa 0 mm - 517 W/m² -
1788638942 37.22° C 31% 1013.5 hPa 0 mm - 528 W/m² -
1788638676 37.22° C 32% 1013.5 hPa 0 mm - 534 W/m² -
1788638375 37.78° C 32% 1013.5 hPa 0 mm - 508 W/m² -
1788638334 37.78° C 32% 1013.5 hPa 0 mm - 508 W/m² -
1788638035 37.78° C 32% 1013.5 hPa 0 mm - 516 W/m² -
1788637734 37.22° C 32% 1013.5 hPa 0 mm - 512 W/m² -
1788637435 37.78° C 31% 1013.9 hPa 0 mm - 523 W/m² -
1788637137 37.78° C 34% 1013.9 hPa 0 mm - 528 W/m² -
1788636876 37.22° C 34% 1013.9 hPa 0 mm - 531 W/m² -
1788636575 37.22° C 33% 1014.2 hPa 0 mm - 530 W/m² -
1788636276 37.22° C 33% 1014.2 hPa 0 mm - 537 W/m² -
1788635976 36.67° C 33% 1014.2 hPa 0 mm - 538 W/m² -
1788635935 36.67° C 33% 1014.2 hPa 0 mm - 538 W/m² -
1788635635 37.22° C 35% 1014.2 hPa 0 mm - 545 W/m² -
1788635334 36.67° C 36% 1014.6 hPa 0 mm - 542 W/m² -
1788635076 36.67° C 34% 1014.6 hPa 0 mm - 544 W/m² -
1788634775 37.22° C 35% 1014.6 hPa 0 mm - 539 W/m² -
1788634476 36.67° C 36% 1014.6 hPa 0 mm - 547 W/m² -
1788634176 37.22° C 35% 1014.6 hPa 0 mm - 543 W/m² -
1788633875 36.67° C 35% 1014.6 hPa 0 mm - 548 W/m² -
1788633575 36.11° C 37% 1014.6 hPa 0 mm - 553 W/m² -

* Rain latest hour (hover to see other rain measurements)
** Current wind speed in m/s (hover to see current wind gust speed)